Latest Weather Observations for Gabo Island

IDV60801

Issued at 4:05 pm EDT Saturday 1 November 2014 (issued every 30 minutes, with the page automatically refreshed every 10 minutes)

About weather observations | Map of weather stations | Latest weather observations for VIC | Other Formats
Station Details ID: 084016 Name: GABO ISLAND LIGHTHOUSE Lat: -37.57 Lon: 149.92 Height: 15.2 m
Data from the previous 72 hours. | See also: Recent months at Gabo Island
Date/Time
EDT
Temp
°C
App
Temp
°C
Dew
Point
Rel
Hum
%
Delta-T
°C
Wind Press
QNH
hPa
Press
MSL
hPa
Rain
since 9 am
mm
Dir
 
Spd
km/h
Gust
km/h
Spd
kts
Gust
kts
01/04:00pm 14.4 5.3 9.8 74 2.4 SW 48 59 26 32 1002.3 - 3.2
01/03:46pm 14.5 4.4 10.3 76 2.2 SW 54 72 29 39 1002.4 - 3.0
01/03:30pm 13.8 2.9 10.8 82 1.6 SW 59 72 32 39 1002.3 - 3.0
01/03:00pm 13.8 3.4 11.2 84 1.4 SW 57 76 31 41 1002.2 1002.2 3.0
01/02:43pm 13.7 4.2 12.4 92 0.7 SW 54 74 29 40 1002.0 - 2.8
01/02:30pm 14.4 5.1 13.0 91 0.8 SW 54 67 29 36 1001.9 - 2.8
01/02:00pm 14.5 5.6 13.2 92 0.7 SW 52 63 28 34 1001.4 - 2.6
01/01:50pm 14.4 7.2 13.1 92 0.7 SW 43 61 23 33 1001.4 - 2.4
01/01:30pm 14.9 8.0 14.0 94 0.5 SW 43 52 23 28 1001.4 - 1.8
01/01:00pm 15.1 7.4 13.3 89 1.0 SW 46 56 25 30 1001.2 - 1.0
01/12:30pm 15.6 8.3 13.3 86 1.3 SW 44 54 24 29 1000.4 - 0.0
01/12:00pm 16.5 7.4 12.5 77 2.2 SW 52 61 28 33 999.6 999.6 0.0
01/11:30am 16.9 8.7 11.6 71 2.9 SW 46 61 25 33 999.8 - 0.0
01/11:26am 17.0 9.2 11.1 68 3.2 SSW 43 56 23 30 999.8 - 0.0
01/11:00am 17.3 11.9 11.0 66 3.4 SSW 30 35 16 19 999.8 - 0.0
01/10:30am 17.4 11.4 10.9 65 3.5 SSW 33 39 18 21 999.3 - 0.0
01/10:00am 18.1 15.2 12.4 69 3.2 S 19 26 10 14 999.7 - 0.0
01/09:30am 18.3 17.0 12.4 68 3.3 SSW 11 15 6 8 999.7 - 0.0
01/09:00am 17.8 14.2 12.0 69 3.2 SW 22 24 12 13 999.0 999.2 0.0
01/08:30am 18.3 14.5 11.0 62 4.0 WSW 22 30 12 16 999.7 - 0.0
01/08:00am 18.1 10.4 10.1 59 4.3 WSW 41 54 22 29 999.4 - 0.0
01/07:30am 18.3 12.0 9.6 57 4.6 WSW 33 43 18 23 999.2 - 0.0
01/07:00am 18.0 10.6 9.9 59 4.3 WSW 39 46 21 25 999.1 - 0.0
01/06:30am 18.3 9.7 11.6 65 3.7 SW 48 67 26 36 997.9 - 0.0
01/06:28am 18.3 10.1 11.6 65 3.7 SW 46 67 25 36 997.9 - 0.0
01/06:19am 19.1 11.2 11.5 61 4.2 SSW 44 52 24 28 998.1 - 0.0
01/06:18am 19.7 14.6 11.8 60 4.4 W 30 52 16 28 998.1 - 0.0
01/06:00am 19.4 16.7 12.9 66 3.7 N 19 20 10 11 995.8 995.8 0.0
01/05:30am 18.4 16.7 14.6 78 2.2 N 17 20 9 11 995.7 - 0.0
01/05:00am 18.4 15.7 15.5 83 1.7 N 24 32 13 17 995.9 - 0.0
01/04:30am 17.8 14.1 16.1 90 1.0 NNE 30 35 16 19 995.9 - 0.0
01/04:00am 17.7 13.7 16.2 91 0.9 NE 32 37 17 20 996.2 - 0.0
01/03:30am 18.1 14.7 15.7 86 1.4 NE 28 35 15 19 996.7 - 0.0
01/03:00am 19.0 16.0 14.7 76 2.5 NNE 24 30 13 16 997.3 997.3 0.0
01/02:30am 19.1 16.6 15.2 78 2.3 N 22 28 12 15 997.7 - 0.0
01/02:00am 19.3 17.9 15.6 79 2.2 NNE 17 24 9 13 998.2 - 0.0
01/01:30am 17.7 17.3 16.2 91 0.9 NNE 13 15 7 8 999.1 - 0.0
01/01:00am 18.5 17.9 16.7 89 1.1 N 15 22 8 12 999.8 - 0.0
01/12:30am 18.2 16.3 16.7 91 0.9 N 22 30 12 16 1000.4 - 0.0
01/12:00am 18.0 14.2 16.7 92 0.8 NNE 32 37 17 20 1000.9 1000.9 0.0
 
Date/Time
EDT
Temp
°C
App
Temp
°C
Dew
Point
Rel
Hum
%
Delta-T
°C
Wind Press
QNH
hPa
Press
MSL
hPa
Rain
since 9 am
mm
Dir
 
Spd
km/h
Gust
km/h
Spd
kts
Gust
kts
31/11:30pm 17.7 13.8 16.5 93 0.7 NNE 32 37 17 20 1001.2 - 0.0
31/11:00pm 17.8 13.8 16.3 91 0.9 NNE 32 35 17 19 1001.7 - 0.0
31/10:30pm 17.6 13.6 16.3 92 0.8 NNE 32 35 17 19 1002.1 - 0.0
31/10:00pm 17.8 14.2 16.3 91 0.9 NNE 30 35 16 19 1002.7 - 0.0
31/09:30pm 17.9 15.4 16.2 90 1.0 NNE 24 30 13 16 1003.3 - 0.0
31/09:00pm 18.0 13.5 16.5 91 0.9 NNE 35 39 19 21 1003.5 1003.5 0.0
31/08:30pm 17.7 14.7 16.7 94 0.6 NE 28 35 15 19 1003.8 - 0.0
31/08:00pm 17.2 13.3 16.4 95 0.5 NE 32 33 17 18 1004.2 - 0.0
31/07:30pm 17.3 14.1 16.3 94 0.6 NE 28 32 15 17 1004.4 - 0.0
31/07:00pm 17.7 14.5 16.4 92 0.8 NE 28 30 15 16 1004.4 - 0.0
31/06:30pm 17.7 14.8 16.2 91 0.9 ENE 26 28 14 15 1004.6 - 0.0
31/06:00pm 18.1 14.8 16.1 88 1.2 ENE 28 32 15 17 1004.7 1004.8 0.0
31/05:30pm 17.9 15.0 16.2 90 1.0 ENE 26 30 14 16 1005.0 - 0.0
31/05:00pm 18.6 14.4 16.3 86 1.4 NE 33 39 18 21 1004.9 - 0.0
31/04:30pm 18.9 13.9 16.2 84 1.6 NE 37 43 20 23 1005.1 - 0.0
31/04:00pm 18.9 14.3 16.2 84 1.6 NE 35 39 19 21 1005.5 - 0.0
31/03:30pm 19.0 14.7 16.0 83 1.8 NE 33 37 18 20 1005.9 - 0.0
31/03:00pm 18.8 14.1 15.8 83 1.8 NE 35 39 19 21 1006.4 1006.4 0.0
31/02:30pm 19.3 14.5 15.6 79 2.2 NE 35 41 19 22 1006.7 - 0.0
31/02:00pm 19.9 15.1 15.5 76 2.6 NE 35 41 19 22 1007.1 - 0.0
31/01:30pm 19.8 14.9 15.4 76 2.6 NE 35 41 19 22 1007.3 - 0.0
31/01:00pm 19.5 13.4 15.1 76 2.6 NE 41 46 22 25 1007.4 - 0.0
31/12:30pm 19.8 13.5 14.5 71 3.1 NNE 41 46 22 25 1008.1 - 0.0
31/12:00pm 20.2 14.7 14.7 70 3.2 NNE 37 43 20 23 1008.5 1008.5 0.0
31/11:30am 19.9 13.0 14.4 70 3.2 NNE 44 50 24 27 1009.0 - 0.0
31/11:00am 19.9 13.5 14.2 69 3.3 NNE 41 48 22 26 1009.5 - 0.0
31/10:30am 20.1 14.8 14.2 69 3.4 NNE 35 41 19 22 1010.0 - 0.0
31/10:00am 19.5 14.0 13.7 69 3.3 NNE 35 41 19 22 1010.4 - 0.0
31/09:30am 19.0 13.9 13.8 72 3.0 NNE 33 41 18 22 1010.8 - 0.0
31/09:00am 18.4 12.5 13.5 73 2.8 NNE 37 46 20 25 1011.0 1011.1 0.0
31/08:30am 18.0 12.8 13.4 74 2.6 NNE 33 41 18 22 1011.3 - 0.0
31/08:00am 17.1 13.3 13.6 80 2.0 NNE 26 39 14 21 1011.5 - 0.0
31/07:30am 15.8 13.2 13.7 87 1.2 NNE 20 24 11 13 1011.6 - 0.0
31/07:00am 14.3 11.9 12.7 90 0.9 NNE 17 20 9 11 1011.9 - 0.0
31/06:30am 13.5 11.7 12.0 91 0.8 N 13 17 7 9 1012.1 - 0.0
31/06:00am 13.7 11.5 12.0 89 0.9 NNE 15 20 8 11 1011.9 1011.9 0.0
31/05:30am 13.6 11.7 11.7 88 1.0 NNE 13 17 7 9 1012.0 - 0.0
31/05:00am 12.7 10.8 10.6 87 1.1 NNE 11 13 6 7 1012.3 - 0.0
31/04:30am 13.0 11.8 10.3 84 1.4 N 7 9 4 5 1012.4 - 0.0
31/04:00am 14.5 13.2 11.1 80 1.8 NNE 9 11 5 6 1012.9 - 0.0
31/03:30am 14.6 12.8 10.8 78 2.0 NNE 11 13 6 7 1013.1 - 0.0
31/03:00am 14.3 12.4 10.5 78 2.0 NNE 11 15 6 8 1013.3 1013.3 0.0
31/02:30am 13.9 13.0 11.3 84 1.4 N 7 11 4 6 1013.5 - 0.0
31/02:00am 14.2 13.3 11.4 83 1.5 N 7 9 4 5 1013.7 - 0.0
31/01:30am 13.8 12.8 11.0 83 1.5 N 7 9 4 5 1014.0 - 0.0
31/01:00am 14.2 13.4 11.2 82 1.6 NW 6 7 3 4 1014.3 - 0.0
31/12:30am 14.3 13.6 11.5 83 1.5 NNW 6 7 3 4 1014.5 - 0.0
31/12:00am 14.6 13.6 11.0 79 1.9 W 7 9 4 5 1014.6 1014.6 0.0
 
Date/Time
EDT
Temp
°C
App
Temp
°C
Dew
Point
Rel
Hum
%
Delta-T
°C
Wind Press
QNH
hPa
Press
MSL
hPa
Rain
since 9 am
mm
Dir
 
Spd
km/h
Gust
km/h
Spd
kts
Gust
kts
30/11:30pm 14.8 13.1 11.2 79 1.9 WSW 11 13 6 7 1014.9 - 0.0
30/11:00pm 14.7 13.0 11.1 79 1.9 WSW 11 15 6 8 1014.8 - 0.0
30/10:30pm 14.6 12.5 11.0 79 1.9 WSW 13 17 7 9 1015.1 - 0.0
30/10:00pm 15.0 11.7 11.0 77 2.1 SW 19 24 10 13 1015.3 - 0.0
30/09:30pm 15.4 11.8 10.7 73 2.5 SW 20 24 11 13 1015.2 - 0.0
30/09:00pm 15.4 11.5 10.7 73 2.5 SW 22 26 12 14 1014.9 1014.8 0.0
30/08:30pm 15.4 11.6 11.3 76 2.2 SW 22 24 12 13 1014.7 - 0.0
30/08:00pm 15.6 11.5 11.5 76 2.2 SW 24 28 13 15 1014.6 - 0.0
30/07:30pm 15.7 10.8 11.4 75 2.3 SW 28 32 15 17 1014.3 - 0.0
30/07:00pm 16.1 11.7 11.7 75 2.4 SW 26 30 14 16 1014.0 - 0.0
30/06:30pm 16.3 12.9 10.4 68 3.1 SW 19 22 10 12 1013.6 - 0.0
30/06:00pm 16.4 12.0 10.4 67 3.2 SSW 24 28 13 15 1013.2 1013.2 0.0
30/05:30pm 16.9 13.5 10.7 67 3.3 SSW 19 22 10 12 1013.1 - 0.0
30/05:00pm 17.7 15.4 10.6 63 3.8 SSW 13 19 7 10 1012.8 - 0.0
30/04:30pm 17.8 14.6 11.8 68 3.3 SSW 20 26 11 14 1012.5 - 0.0
30/04:00pm 17.5 13.4 11.4 67 3.3 SSW 24 28 13 15 1012.3 - 0.0
30/03:30pm 18.3 14.6 12.6 69 3.2 S 24 26 13 14 1012.7 - 0.0
30/03:00pm 18.2 15.3 12.4 69 3.2 S 19 20 10 11 1012.7 1012.7 0.0
30/02:30pm 18.6 15.5 12.1 66 3.6 S 20 24 11 13 1012.9 - 0.0
30/02:00pm 18.5 15.3 11.8 65 3.7 S 20 24 11 13 1012.8 - 0.0
30/01:30pm 18.5 15.5 12.0 66 3.6 S 19 20 10 11 1012.8 - 0.0
30/01:00pm 18.2 15.1 12.2 68 3.3 S 20 24 11 13 1013.1 - 0.0
30/12:30pm 18.6 15.8 12.5 67 3.4 S 19 22 10 12 1013.4 - 0.0
30/12:00pm 17.8 15.3 10.9 64 3.7 S 15 17 8 9 1013.7 1013.7 0.0
30/11:30am 17.5 16.3 11.6 68 3.2 S 9 11 5 6 1013.8 - 0.0
30/11:00am 17.3 15.3 11.4 68 3.2 SSW 13 19 7 10 1014.2 - 0.0
30/10:30am 16.6 14.3 10.6 67 3.2 SSW 13 15 7 8 1014.1 - 0.0
30/10:00am 16.4 14.1 10.4 67 3.2 SW 13 15 7 8 1014.3 - 0.0
30/09:30am 15.9 13.9 10.2 69 3.0 WSW 11 13 6 7 1014.0 - 0.0
30/09:00am 15.4 13.7 11.3 76 2.2 W 11 15 6 8 1014.2 1014.2 0.0
30/08:30am 14.4 12.3 11.0 80 1.8 W 13 15 7 8 1014.6 - 0.0
30/08:00am 13.9 11.6 11.7 86 1.2 WNW 15 17 8 9 1014.5 - 0.0
30/07:30am 13.0 11.4 11.7 92 0.7 WNW 11 13 6 7 1014.5 - 0.0
30/07:00am 13.3 11.3 11.4 88 1.0 W 13 15 7 8 1014.4 - 0.0
30/06:30am 13.5 12.2 11.4 87 1.1 W 9 15 5 8 1014.1 - 0.0
30/06:00am 12.6 11.4 10.3 86 1.2 N 7 9 4 5 1013.8 1013.9 0.0
30/05:30am 12.6 11.3 10.1 85 1.3 N 7 9 4 5 1013.8 - 0.0
30/05:00am 13.5 11.6 10.4 81 1.6 NNE 11 13 6 7 1013.8 - 0.0
30/04:30am 12.8 11.1 9.9 82 1.5 N 9 11 5 6 1013.7 - 0.0
30/04:00am 12.8 10.7 9.9 82 1.5 N 11 13 6 7 1014.0 - 0.0
30/03:30am 13.6 11.9 9.9 78 1.9 N 9 9 5 5 1014.2 - 0.0
30/03:00am 13.6 11.9 9.9 78 1.9 N 9 9 5 5 1014.5 1014.5 0.0
30/02:30am 13.9 12.5 9.6 75 2.2 WNW 7 9 4 5 1014.9 - 0.0
30/02:00am 13.8 12.6 10.3 79 1.8 WNW 7 9 4 5 1015.2 - 0.0
30/01:30am 14.0 12.5 10.4 79 1.9 WNW 9 11 5 6 1015.8 - 0.0
30/01:00am 14.0 12.5 10.4 79 1.9 WNW 9 9 5 5 1015.9 - 0.0
30/12:30am 14.1 13.0 10.7 80 1.8 W 7 9 4 5 1016.3 - 0.0
30/12:00am 14.3 12.9 10.9 80 1.8 W 9 11 5 6 1016.5 1016.5 0.0
 
Date/Time
EDT
Temp
°C
App
Temp
°C
Dew
Point
Rel
Hum
%
Delta-T
°C
Wind Press
QNH
hPa
Press
MSL
hPa
Rain
since 9 am
mm
Dir
 
Spd
km/h
Gust
km/h
Spd
kts
Gust
kts
29/11:30pm 14.2 13.1 10.8 80 1.8 W 7 9 4 5 1016.7 - 0.0
29/11:00pm 14.2 13.0 10.4 78 2.0 W 7 7 4 4 1016.8 - 0.0
29/10:30pm 14.1 12.9 10.3 78 2.0 W 7 9 4 5 1017.0 - 0.0
29/10:00pm 14.1 12.5 10.3 78 2.0 WNW 9 9 5 5 1017.2 - 0.0
29/09:30pm 14.1 12.7 9.6 74 2.3 WSW 7 9 4 5 1017.3 - 0.0
29/09:00pm 13.8 12.3 9.1 73 2.4 WSW 7 7 4 4 1016.9 1016.9 0.0
29/08:30pm 13.9 12.3 8.7 71 2.6 SSW 7 9 4 5 1016.6 - 0.0
29/08:00pm 14.5 12.6 9.0 69 2.8 SW 9 11 5 6 1016.4 - 0.0
29/07:30pm 14.6 13.0 8.9 68 2.9 SSW 7 9 4 5 1016.1 - 0.0
29/07:00pm 15.3 12.9 8.6 64 3.4 SSW 11 13 6 7 1015.8 - 0.0
29/06:30pm 15.7 13.2 8.2 61 3.8 S 11 13 6 7 1015.5 - 0.0
29/06:00pm 16.0 12.8 8.3 60 3.9 SSW 15 19 8 10 1015.3 1015.3 0.0
29/05:30pm 16.3 12.4 8.7 60 3.9 S 19 20 10 11 1015.3 - 0.0
29/05:00pm 16.5 12.5 8.9 61 3.9 SSW 20 24 11 13 1015.2 - 0.0
29/04:30pm 15.9 10.3 8.6 62 3.7 SSW 28 35 15 19 1015.0 - 0.0

Other Formats:

Comma delimited format used in spreadsheet applications
http://www.bom.gov.au/fwo/IDV60801/IDV60801.94933.axf

JavaScript Object Notation format (JSON) in row-major order
http://www.bom.gov.au/fwo/IDV60801/IDV60801.94933.json